Date,TemperatureHighF,TemperatureAvgF,TemperatureLowF,DewpointHighF,DewpointAvgF,DewpointLowF,HumidityHigh,HumidityAvg,HumidityLow,PressureMaxIn,PressureMinIn,WindSpeedMaxMPH,WindSpeedAvgMPH,GustSpeedMaxMPH,PrecipitationSumIn
2014-1-1,25.3,18.6,11.3,16.9,11.5,7.1,92,74,53,30.41,30.24,4,1,8,0.00
2014-1-2,18.6,13.4,5.1,16.9,11.5,2.8,93,92,90,30.34,29.78,11,6,19,0.00
2014-1-3,6.5,1.9,-3.4,4.2,-1.1,-7.0,91,87,84,30.46,29.70,13,8,20,0.00
2014-1-4,18.6,8.1,-4.5,13.3,4.2,-7.6,89,84,74,30.55,30.34,6,2,9,0.00
2014-1-5,34.7,24.8,13.4,34.4,22.0,10.9,99,89,74,30.36,29.88,4,1,4,0.04
2014-1-6,53.3,37.7,21.8,52.9,36.2,16.5,100,95,74,29.87,29.36,9,4,16,1.17
2014-1-7,21.4,4.1,-0.3,17.9,-4.1,-9.2,91,69,51,30.32,29.54,10,3,15,0.00
2014-1-8,17.1,7.4,-1.3,5.9,-0.3,-6.9,82,71,54,30.55,30.32,4,1,7,0.00
2014-1-9,25.7,15.4,8.5,13.3,8.5,4.4,86,74,58,30.69,30.50,7,1,12,0.00
2014-1-10,34.3,26.5,15.3,34.0,24.5,10.3,99,92,77,30.63,30.28,2,0,6,0.03
2014-1-11,54.6,46.5,34.2,54.6,46.4,33.9,100,100,98,30.27,29.30,10,4,21,1.38
2014-1-12,48.4,37.8,29.1,48.4,32.7,25.7,100,82,72,30.03,29.34,8,3,15,0.01
2014-1-13,45.2,35.4,26.3,36.2,31.0,24.4,95,84,65,30.14,29.92,6,2,9,0.00
2014-1-14,42.0,39.8,36.6,41.7,39.0,35.4,99,97,92,29.92,29.68,5,1,7,0.71
2014-1-15,45.9,36.7,30.1,40.0,34.4,29.5,99,92,76,30.01,29.82,4,1,7,0.01
2014-1-16,35.3,32.2,29.6,34.8,30.5,27.6,98,94,88,29.95,29.86,8,3,9,0.00
2014-1-17,38.0,29.8,22.2,29.5,26.5,21.2,98,88,64,30.01,29.92,5,1,9,0.01
2014-1-18,33.6,29.4,21.2,32.6,27.7,19.4,97,93,85,29.92,29.64,7,2,9,0.01
2014-1-19,27.8,23.5,20.4,23.9,21.1,18.8,95,90,83,29.79,29.60,4,2,9,0.02
2014-1-20,37.6,29.9,17.3,29.6,24.2,10.7,92,79,68,29.90,29.56,9,4,12,0.05
2014-1-21,17.1,10.6,6.1,10.8,5.4,1.1,90,79,61,30.04,29.88,8,5,16,0.00
2014-1-22,6.3,1.8,-5.6,3.1,-4.8,-10.5,88,74,63,29.99,29.78,12,9,18,0.00
2014-1-23,14.4,5.2,-1.8,1.6,-3.2,-8.1,84,69,49,30.26,30.00,9,3,14,0.00
2014-1-24,14.1,6.4,-2.2,1.9,-1.7,-6.1,84,70,50,30.35,30.08,8,2,12,0.00
2014-1-25,22.9,16.7,9.4,18.0,10.5,1.1,93,77,59,30.07,29.43,6,3,11,0.00
2014-1-26,18.2,13.2,4.9,14.5,6.7,-1.6,94,75,52,29.87,29.43,6,2,10,0.00
2014-1-27,37.1,24.6,15.0,31.7,17.9,-3.6,94,77,41,29.98,29.63,9,3,16,0.04
2014-1-28,14.3,10.5,8.5,-0.8,-3.2,-5.6,65,54,42,30.34,30.24,6,1,8,0.00
2014-1-29,22.0,12.7,6.5,4.9,-0.2,-4.3,86,58,33,30.27,30.06,5,1,9,0.00
2014-1-30,27.4,14.5,3.6,12.8,2.8,-3.8,89,61,37,30.48,30.21,5,1,7,0.01
2014-1-31,39.3,27.5,16.2,21.8,15.9,8.5,90,63,41,30.25,30.09,4,2,8,0.02
2014-2-1,44.5,33.8,27.5,32.3,24.9,19.6,93,71,50,30.35,30.05,5,2,9,0.08
2014-2-2,53.5,38.4,31.4,38.8,34.0,26.9,98,85,53,30.10,29.90,10,2,11,0.04
2014-2-3,31.3,27.5,21.2,28.1,25.1,18.9,96,91,85,30.31,30.10,8,4,10,0.00
2014-2-4,35.1,23.9,15.6,23.9,18.6,13.2,91,81,61,30.49,30.31,7,3,9,0.15
2014-2-5,26.6,24.1,22.5,25.6,22.7,18.9,96,94,86,30.33,29.67,7,4,12,0.00
2014-2-6,27.4,17.0,10.7,21.1,11.7,5.8,95,80,59,30.30,29.98,10,4,12,0.05
2014-2-7,29.9,17.7,7.9,16.1,9.9,5.1,91,72,52,30.31,30.22,4,1,6,0.02
2014-2-8,30.8,18.0,6.8,10.0,6.0,1.3,80,61,36,30.33,30.15,6,1,10,0.01
2014-2-9,32.6,20.6,11.6,18.0,11.4,4.1,93,68,44,30.19,29.96,8,2,9,0.00
2014-2-10,24.8,16.8,9.9,17.0,9.6,3.8,92,74,52,30.27,29.96,10,4,14,0.00
2014-2-11,21.2,12.3,4.8,7.3,3.8,0.6,87,69,52,30.49,30.26,9,4,12,0.00
2014-2-12,25.9,13.7,3.8,14.4,2.3,-2.4,90,63,30,30.59,30.38,8,3,12,0.00
2014-2-13,30.7,24.1,16.7,30.2,22.9,13.8,98,95,88,30.38,29.08,13,6,24,0.00
2014-2-14,33.5,27.4,22.3,32.0,26.4,21.1,99,96,93,29.79,28.96,11,2,13,0.01
2014-2-15,30.0,25.4,20.8,28.2,24.2,18.5,97,95,90,29.83,29.61,15,3,23,0.00
2014-2-16,26.3,19.2,13.6,18.4,14.4,7.4,91,82,66,30.06,29.65,14,6,23,0.00
2014-2-17,25.5,15.5,7.5,7.1,1.7,-1.9,76,55,38,30.40,30.06,14,6,24,0.00
2014-2-18,27.9,19.8,13.2,25.6,14.3,0.4,95,80,50,30.36,29.99,4,1,8,0.00
2014-2-19,34.4,27.7,20.0,33.9,26.5,18.6,99,95,88,30.14,29.74,6,1,10,0.00
2014-2-20,48.2,37.3,27.3,33.8,28.4,23.7,97,73,39,30.25,29.96,11,2,16,0.66
2014-2-21,40.7,34.1,31.6,40.7,33.8,31.1,100,99,97,30.10,29.70,4,2,8,0.33
2014-2-22,49.6,38.3,28.2,32.1,27.4,22.6,99,69,39,30.02,29.90,5,2,12,0.01
2014-2-23,47.6,39.5,33.0,30.3,27.4,22.6,72,62,49,30.02,29.80,3,0,5,0.00
2014-2-24,37.0,29.2,22.9,29.2,15.5,7.4,74,57,42,29.89,29.79,10,5,13,0.00
2014-2-25,27.4,19.7,11.3,15.2,9.9,5.2,76,66,49,30.05,29.92,6,2,9,0.00
2014-2-26,27.1,15.3,5.9,11.3,3.4,-6.2,81,61,38,29.98,29.83,7,2,15,0.00
2014-2-27,28.2,14.2,4.6,12.1,1.1,-8.8,74,56,42,30.02,29.63,8,3,12,0.00
2014-2-28,19.0,9.2,-0.5,-1.7,-5.8,-9.3,74,51,34,30.48,30.02,11,2,14,0.00
2014-3-1,31.5,21.2,7.3,17.4,6.6,-7.0,64,53,44,30.48,30.15,6,2,9,0.00
2014-3-2,35.2,27.4,18.7,21.8,17.4,10.9,74,66,55,30.15,30.01,8,3,14,0.00
2014-3-3,18.5,11.6,6.7,10.7,-0.2,-5.3,72,59,48,30.35,30.04,12,7,18,0.00
2014-3-4,29.1,16.7,3.9,9.2,2.8,-6.4,81,56,36,30.45,30.28,10,3,16,0.00
2014-3-5,29.3,22.0,14.3,13.1,9.2,5.9,70,58,45,30.50,30.25,7,2,10,0.00
2014-3-6,29.9,17.2,5.4,5.5,-2.7,-8.0,69,44,19,30.65,30.50,8,3,11,0.00
2014-3-7,36.2,25.2,13.1,25.4,16.0,0.6,86,69,51,30.53,29.97,4,1,7,0.00
2014-3-8,50.0,38.0,27.4,32.6,29.2,25.7,96,73,48,29.97,29.79,9,4,17,0.00
2014-3-9,36.2,29.6,25.4,18.9,14.8,12.8,68,54,46,29.97,29.92,9,3,14,0.00
2014-3-10,43.3,34.1,24.7,30.8,24.5,15.6,84,68,56,29.92,29.61,3,1,6,0.00
2014-3-11,56.2,42.6,32.9,37.6,31.6,28.5,89,68,38,29.74,29.53,7,1,12,0.00
2014-3-12,46.3,41.1,23.3,39.2,33.0,21.3,98,74,57,29.73,29.04,12,2,21,0.33
2014-3-13,22.2,13.9,9.0,20.0,7.1,0.3,91,75,53,30.04,29.07,17,10,25,0.00
2014-3-14,37.3,22.6,7.8,26.5,13.0,3.7,87,68,45,30.25,29.95,7,3,14,0.00
2014-3-15,51.5,40.0,29.9,34.8,30.4,26.5,93,70,45,29.97,29.75,6,3,12,0.02
2014-3-16,32.3,24.7,16.9,26.8,10.6,-0.7,80,56,41,30.22,29.97,10,6,13,0.00
2014-3-17,34.3,21.3,13.5,6.7,3.4,-0.7,65,47,27,30.18,30.07,8,4,11,0.00
2014-3-18,41.2,26.7,15.3,16.4,4.4,-0.1,66,40,21,30.34,30.17,5,3,8,0.00
2014-3-19,42.9,30.9,22.1,31.3,23.4,16.8,97,75,42,30.37,29.92,6,3,12,0.36
2014-3-20,49.3,38.2,31.9,41.9,31.3,24.0,99,78,47,29.93,29.70,6,2,11,0.29
2014-3-21,41.1,34.1,26.2,25.2,22.4,19.9,77,63,46,30.07,29.82,9,3,16,0.00
2014-3-22,53.6,36.5,24.7,38.9,27.2,19.7,86,70,43,30.08,29.75,9,4,15,0.00
2014-3-23,32.9,28.7,17.3,25.6,17.5,7.5,82,63,47,30.12,29.96,10,6,15,0.00
2014-3-24,28.4,19.9,11.9,8.5,5.5,3.5,72,54,36,30.22,30.11,11,6,18,0.00
2014-3-25,35.3,24.6,13.4,19.9,13.1,6.8,79,62,43,30.19,29.90,6,2,10,0.00
2014-3-26,28.8,24.3,16.8,16.8,11.1,2.6,72,57,43,30.14,29.76,15,10,25,0.00
2014-3-27,41.6,26.9,13.0,24.5,12.1,5.6,79,56,30,30.42,30.14,9,3,14,0.00
2014-3-28,44.4,38.2,30.5,44.1,34.9,22.8,99,88,71,30.28,30.00,4,1,11,0.29
2014-3-29,45.7,41.3,37.0,45.6,40.0,36.5,100,95,81,30.24,29.85,10,4,15,0.99
2014-3-30,42.4,38.2,34.1,42.4,37.9,33.3,100,99,97,29.85,29.58,11,8,21,0.69
2014-3-31,39.8,32.7,28.9,35.7,30.5,27.0,98,92,76,30.08,29.71,16,6,24,0.45
2014-4-1,55.3,40.9,28.8,36.9,31.9,26.0,90,72,48,30.14,30.02,7,3,12,0.05
2014-4-2,56.6,43.4,32.3,41.7,35.8,30.4,98,77,46,30.13,30.04,6,2,7,0.00
2014-4-3,54.8,44.6,33.7,33.3,26.9,21.9,78,52,33,30.14,30.06,8,5,14,0.00
2014-4-4,47.2,39.2,32.6,32.1,29.9,26.2,97,71,51,30.12,29.80,11,4,21,0.10
2014-4-5,48.9,38.9,32.6,42.9,31.8,22.8,99,78,48,30.01,29.75,9,4,15,0.12
2014-4-6,53.8,40.5,28.1,24.5,22.7,19.3,79,53,26,30.23,30.01,10,4,15,0.00
2014-4-7,52.9,43.9,37.8,40.9,27.4,16.1,98,55,28,30.23,29.80,8,3,12,0.10
2014-4-8,60.9,48.2,40.3,56.2,44.2,34.2,100,87,60,29.78,29.35,8,3,12,0.36
2014-4-9,53.2,43.5,35.4,38.5,29.2,16.7,91,60,31,30.01,29.58,13,7,20,0.00
2014-4-10,60.1,44.2,29.3,35.7,26.4,18.9,73,51,31,30.19,30.01,8,3,15,0.00
2014-4-11,69.5,53.0,45.4,51.9,42.8,35.1,97,70,44,30.04,29.95,7,2,9,0.16
2014-4-12,66.2,52.9,38.5,44.6,38.2,31.5,99,64,29,30.23,29.99,7,2,8,0.09
2014-4-13,73.7,55.8,42.7,58.0,47.0,34.3,88,73,55,30.22,29.98,8,3,15,0.00
2014-4-14,74.4,60.7,52.0,58.8,54.4,50.7,99,81,55,30.02,29.85,9,4,16,0.00
2014-4-15,59.3,52.1,28.4,59.0,51.2,27.5,99,97,91,29.86,29.52,15,7,25,1.18
2014-4-16,36.9,29.8,22.5,27.5,20.8,16.0,97,71,48,30.63,29.82,15,8,23,0.17
2014-4-17,47.4,35.0,24.8,29.7,23.6,19.2,85,65,41,30.79,30.63,6,3,10,0.01
2014-4-18,45.9,35.8,25.7,33.5,28.4,23.2,92,76,53,30.64,30.26,5,2,9,0.00
2014-4-19,58.2,45.9,32.3,38.0,32.1,27.5,90,61,37,30.40,30.22,12,5,24,0.01
2014-4-20,59.5,45.9,36.0,29.6,26.3,22.1,74,49,25,30.50,30.33,5,3,8,0.00
2014-4-21,68.5,50.8,33.0,36.5,26.4,14.5,82,47,13,30.33,29.86,5,2,10,0.00
2014-4-22,72.4,54.2,41.8,53.2,45.3,36.4,97,75,41,29.86,29.49,7,2,9,0.05
2014-4-23,51.0,44.4,39.4,50.3,39.5,29.7,98,83,62,29.74,29.46,12,8,22,0.03
2014-4-24,52.8,43.4,34.3,29.6,21.3,16.9,69,43,27,30.01,29.74,15,9,23,0.00
2014-4-25,65.2,49.4,35.1,36.3,25.3,19.5,76,41,18,30.05,29.81,8,3,10,0.02
2014-4-26,56.9,44.3,38.0,46.7,41.1,36.1,99,89,58,29.87,29.73,6,2,10,1.09
2014-4-27,50.4,43.6,38.1,41.9,37.2,33.0,95,79,64,30.13,29.85,12,6,18,0.00
2014-4-28,61.2,49.2,37.8,40.6,36.9,33.1,86,65,41,30.18,30.02,10,5,15,0.00
2014-4-29,44.9,41.1,36.4,39.5,37.1,35.6,97,86,74,30.47,30.18,8,5,16,0.09
2014-4-30,41.6,38.1,35.5,41.5,37.7,35.0,100,99,97,30.48,30.09,8,5,15,1.91
2014-5-1,72.8,55.1,41.6,63.7,50.5,41.6,100,87,53,30.09,29.68,10,2,12,0.75
2014-5-2,64.3,54.7,46.5,45.6,40.1,36.8,78,59,39,29.83,29.69,8,3,13,0.00
2014-5-3,65.4,54.4,43.8,47.8,41.9,37.3,91,65,39,29.87,29.72,5,1,8,0.00
2014-5-4,62.2,50.6,42.8,46.9,38.8,31.4,96,67,35,29.73,29.58,12,4,17,0.02
2014-5-5,59.9,50.9,44.2,42.3,39.1,36.3,82,65,45,29.89,29.71,11,7,17,0.00
2014-5-6,61.7,51.4,44.0,40.4,34.9,29.4,80,56,33,30.08,29.87,10,5,16,0.00
2014-5-7,64.1,53.1,40.0,36.2,31.0,24.5,65,45,23,30.23,30.08,6,3,11,0.00
2014-5-8,54.4,51.0,45.6,53.6,46.7,35.6,98,86,62,30.19,30.10,2,0,3,0.06
2014-5-9,57.4,54.3,50.9,57.4,54.2,50.6,100,100,98,30.20,30.05,4,2,7,0.30
2014-5-10,78.0,63.0,57.5,68.8,60.2,57.0,100,92,57,30.04,29.78,5,2,8,0.36
2014-5-11,75.8,63.9,52.5,58.2,42.7,32.1,99,51,22,30.06,29.82,11,3,15,0.01
2014-5-12,84.3,70.3,58.3,58.7,45.7,33.2,85,44,25,30.10,29.98,5,1,9,0.00
2014-5-13,67.9,59.6,49.8,58.2,48.2,43.4,85,67,49,30.27,29.99,6,2,12,0.00
2014-5-14,72.2,57.3,44.2,57.4,48.0,39.0,97,74,41,30.30,30.23,5,2,9,0.00
2014-5-15,69.4,62.0,56.1,67.2,61.6,55.3,100,99,87,30.27,30.12,6,2,11,0.23
2014-5-16,63.9,62.7,60.7,63.9,62.7,60.7,100,100,100,30.12,29.81,8,6,19,0.56
2014-5-17,65.8,56.7,44.5,63.6,47.8,38.8,100,75,44,30.10,29.78,8,4,13,0.48
2014-5-18,63.9,53.4,43.5,40.9,37.1,33.3,76,55,35,30.17,30.09,10,6,14,0.00
2014-5-19,63.2,52.0,41.6,46.8,38.5,31.7,86,62,39,30.18,30.07,13,5,19,0.01
2014-5-20,71.9,60.0,46.1,47.5,41.3,37.8,84,53,30,30.12,29.98,11,4,18,0.00
2014-5-21,75.2,64.7,54.9,52.1,45.5,37.4,80,51,34,29.99,29.87,4,2,6,0.00
2014-5-22,56.3,53.8,52.2,54.9,52.6,49.3,100,96,79,29.89,29.79,5,1,9,0.58
2014-5-23,63.6,56.8,53.2,59.0,55.5,53.2,100,96,80,29.94,29.85,5,1,8,0.15
2014-5-24,54.3,51.5,49.8,53.7,51.1,49.5,99,99,98,30.00,29.92,4,2,8,0.00
2014-5-25,76.9,69.1,56.9,57.6,51.3,43.5,87,55,31,30.09,30.01,8,3,12,0.01
2014-5-26,81.9,68.5,55.5,59.7,54.7,50.3,88,64,40,30.03,29.84,4,1,8,0.00
2014-5-27,84.0,69.5,53.0,68.1,59.2,52.1,97,72,44,29.87,29.71,5,1,8,0.11
2014-5-28,52.9,47.9,45.4,52.1,46.8,43.6,99,96,92,30.21,29.82,7,4,14,0.01
2014-5-29,66.7,53.4,40.9,50.3,45.1,40.1,98,76,47,30.25,30.13,3,2,7,0.00
2014-5-30,75.0,59.0,48.0,55.6,49.9,44.6,92,74,42,30.15,29.99,8,3,14,0.01
2014-5-31,66.4,57.7,49.5,52.4,49.6,46.8,95,76,58,30.30,30.05,8,4,13,0.00
2014-6-1,75.8,61.8,48.8,53.7,45.6,40.0,88,59,29,30.36,30.23,4,1,8,0.00
2014-6-2,80.3,65.1,49.5,61.6,53.0,41.2,88,66,47,30.24,30.00,4,1,6,0.00
2014-6-3,85.0,70.8,57.4,72.8,63.6,53.9,97,80,59,30.01,29.80,3,1,8,0.13
2014-6-4,77.1,66.6,57.5,65.0,59.0,53.0,100,79,48,29.84,29.74,6,1,8,0.01
2014-6-8,68.5,64.6,61.3,59.2,56.8,55.6,82,76,70,29.91,29.88,0,0,3,0.00
2014-6-9,63.6,60.5,58.8,61.5,58.6,55.3,99,94,82,29.98,29.88,2,0,3,0.11
2014-6-10,75.8,65.8,58.8,70.8,64.4,58.5,100,95,82,30.04,29.94,4,0,7,0.04
2014-6-11,61.6,58.7,55.0,60.2,57.1,53.9,98,94,84,30.13,30.04,5,2,8,0.10
2014-6-12,63.2,58.3,53.6,63.2,57.8,52.8,100,98,96,30.12,29.99,3,1,6,0.09
2014-6-13,66.6,63.3,61.0,66.6,63.3,61.0,100,100,100,29.99,29.75,3,1,8,0.86
2014-6-14,70.6,62.1,52.3,63.5,57.3,48.7,100,85,64,29.99,29.77,9,5,13,0.02
2014-6-15,72.8,61.4,51.2,60.3,54.9,49.9,96,80,61,30.09,29.96,10,5,16,0.00
2014-6-16,80.8,67.9,56.8,63.0,56.4,50.4,94,69,42,30.16,30.02,4,1,6,0.00
2014-6-17,86.7,71.7,57.2,72.6,64.6,55.1,96,80,51,30.05,29.84,5,1,8,0.00
2014-6-18,79.1,71.6,64.0,69.0,65.1,60.0,99,81,63,29.97,29.75,9,4,16,0.02
2014-6-19,79.6,68.8,61.6,67.6,60.7,50.5,98,77,51,29.98,29.93,8,3,12,0.11
2014-6-20,72.8,63.8,53.2,54.4,50.9,47.3,85,64,44,29.99,29.90,8,3,14,0.00
2014-6-21,74.8,63.4,52.3,54.5,48.6,43.5,74,60,43,29.98,29.89,6,2,8,0.00
2014-6-22,77.1,65.2,55.8,59.1,53.1,47.6,88,66,45,30.02,29.92,3,1,7,0.00
2014-6-23,80.2,67.4,54.2,64.4,58.9,52.6,95,76,49,30.14,30.02,3,1,7,0.00
2014-6-24,77.3,66.7,56.6,66.6,60.3,56.0,100,81,60,30.14,30.00,3,1,7,0.00
2014-6-25,83.7,69.7,58.7,73.7,66.1,56.5,99,89,71,30.01,29.82,4,1,8,0.00
2014-6-26,80.9,71.9,65.9,71.2,66.7,62.4,100,85,61,29.97,29.78,7,3,12,0.26
2014-6-27,80.5,70.0,60.4,65.6,61.4,56.5,98,77,46,30.19,29.97,5,1,8,0.00
2014-6-28,84.0,69.8,56.4,66.0,60.3,54.2,98,75,39,30.26,30.19,4,1,7,0.00
2014-6-29,84.0,69.6,56.5,69.9,62.8,55.1,96,80,54,30.24,30.09,3,1,4,0.00
2014-6-30,80.9,69.8,57.2,70.3,62.6,54.3,93,79,60,30.10,29.93,3,1,8,0.00
2014-7-1,86.3,73.9,62.1,76.1,69.1,60.9,100,86,70,29.94,29.79,4,1,8,0.00
2014-7-2,88.3,74.1,67.2,79.8,70.8,66.4,100,90,71,29.91,29.79,9,1,13,0.97
2014-7-3,85.2,73.3,64.8,78.8,71.4,64.5,100,94,78,30.00,29.86,6,1,11,1.25
2014-7-4,67.5,63.4,57.9,66.2,62.6,55.0,100,97,87,29.97,29.87,9,4,18,0.23
2014-7-5,76.7,65.1,55.0,57.0,53.8,49.5,94,69,45,30.11,29.92,10,4,14,0.00
2014-7-6,80.1,68.1,53.6,63.0,57.5,51.2,92,70,47,30.07,29.89,4,1,11,0.00
2014-7-7,84.4,73.3,63.5,73.5,66.6,59.6,98,80,64,29.90,29.70,4,1,11,0.14
2014-7-8,85.1,72.6,63.8,76.3,68.1,-99.9,100,89,68,29.82,29.64,4,-8,11,0.40
2014-7-9,82.6,72.2,63.1,71.8,67.2,61.9,100,85,62,29.93,29.68,6,1,9,0.00
2014-7-10,79.5,68.8,59.6,64.2,60.0,51.4,97,75,53,30.15,29.93,6,3,10,0.00
2014-7-11,81.8,70.7,62.0,64.6,56.7,50.9,76,62,41,30.22,30.14,5,2,8,0.00
2014-7-12,84.1,71.9,59.8,71.4,63.7,56.3,99,77,55,30.21,30.11,3,1,7,0.00
2014-7-13,79.2,70.0,62.0,73.3,67.1,59.6,99,91,79,30.11,29.88,5,1,7,0.15
2014-7-14,75.4,70.0,64.7,72.8,69.0,63.6,100,97,89,29.91,29.83,2,0,6,0.32
2014-7-15,80.3,73.1,68.6,75.8,71.8,68.6,100,96,82,29.83,29.72,3,0,5,0.17
2014-7-16,77.4,68.1,60.0,69.6,64.5,59.4,100,89,64,29.88,29.72,7,2,10,0.49
2014-7-17,77.8,67.0,58.3,64.2,58.4,52.8,85,75,54,30.10,29.88,7,3,10,0.00
2014-7-18,77.5,66.4,54.9,60.7,55.3,52.0,91,69,46,30.24,30.10,5,2,8,0.00
2014-7-19,72.6,65.9,59.6,65.1,57.9,52.3,84,76,67,30.26,30.19,2,1,4,0.00
2014-7-20,77.9,66.6,59.0,64.4,57.9,54.4,86,75,51,30.20,30.11,3,1,7,0.00
2014-7-21,82.6,69.1,58.4,69.0,62.4,54.9,94,80,55,30.20,30.12,2,1,4,0.00
2014-7-22,85.7,73.1,61.0,73.6,67.5,60.2,100,84,61,30.15,30.00,2,0,5,0.00
2014-7-23,87.3,74.8,65.4,77.6,70.6,64.9,100,88,68,30.00,29.74,6,1,10,0.85
2014-7-24,76.9,68.5,61.9,67.6,62.2,56.1,99,82,59,29.91,29.76,8,4,12,0.01
2014-7-25,78.9,66.5,56.0,64.1,58.4,53.5,93,77,53,30.01,29.91,5,2,10,0.00
2014-7-26,77.4,66.8,58.0,66.8,62.1,56.8,100,86,61,29.99,29.89,2,0,7,0.00
2014-7-27,79.1,69.6,63.5,73.4,68.3,62.6,100,96,79,29.90,29.65,3,1,6,0.45
2014-7-28,79.1,69.3,60.5,72.7,67.3,58.4,100,94,74,29.66,29.45,6,1,9,0.12
2014-7-29,72.0,63.3,55.3,60.3,56.8,53.8,96,80,59,29.95,29.62,7,3,10,0.00
2014-7-30,75.0,64.3,55.8,61.0,56.2,53.4,93,76,48,30.04,29.95,4,1,6,0.00
2014-7-31,76.9,66.0,56.1,67.1,60.9,54.6,98,84,64,30.15,30.03,3,1,7,0.00
2014-8-1,82.0,69.5,61.7,72.9,66.1,60.9,100,90,64,30.20,30.15,3,0,5,0.26
2014-8-2,70.5,64.9,60.7,64.7,62.8,59.7,100,93,78,30.20,30.10,4,1,6,0.03
2014-8-3,75.7,65.0,58.9,68.5,62.5,58.6,100,92,72,30.13,30.03,3,0,5,0.00
2014-8-4,81.1,69.8,61.8,70.9,65.7,61.5,100,88,64,30.06,30.00,5,0,8,0.00
2014-8-5,84.3,73.4,62.2,70.1,64.9,59.4,99,77,54,30.03,29.89,11,1,15,0.47
2014-8-6,78.2,67.2,58.7,66.7,61.9,57.1,98,84,60,29.91,29.82,7,3,10,0.00
2014-8-7,75.5,64.0,57.2,63.9,57.0,52.5,91,79,59,29.99,29.87,9,4,12,0.05
2014-8-8,76.4,64.8,54.8,63.3,57.4,52.8,95,78,52,30.07,29.98,8,3,15,0.00
2014-8-9,79.3,69.0,58.4,68.2,59.8,55.3,92,74,54,30.11,30.05,6,3,9,0.00
2014-8-10,83.8,72.8,65.4,67.3,60.1,55.2,76,65,45,30.13,30.08,5,2,7,0.00
2014-8-11,83.2,71.6,61.8,69.7,62.3,55.0,92,74,51,30.13,30.08,3,0,5,0.00
2014-8-12,74.3,66.8,61.4,68.0,64.8,59.5,100,94,74,30.10,29.91,4,2,8,0.28
2014-8-13,69.2,64.8,59.8,69.1,64.4,58.8,100,98,94,29.92,29.63,8,3,13,1.95
2014-8-14,71.5,62.1,53.7,58.8,54.8,49.9,97,78,52,29.88,29.72,9,2,14,0.05
2014-8-15,64.0,57.6,50.3,57.5,53.4,49.3,99,87,71,29.96,29.85,4,1,7,0.00
2014-8-16,72.1,61.0,49.6,60.2,55.5,49.1,99,83,59,30.01,29.91,3,0,6,0.01
2014-8-17,75.3,64.5,56.8,65.2,58.4,54.5,95,81,65,29.90,29.81,8,2,9,0.00
2014-8-18,74.3,63.2,54.3,60.3,55.6,51.8,97,77,53,29.90,29.82,7,3,12,0.00
2014-8-19,77.8,65.1,54.4,62.0,54.9,48.7,94,71,47,29.94,29.88,3,1,5,0.00
2014-8-20,80.3,68.4,58.5,69.9,63.7,57.9,100,86,66,30.02,29.94,3,0,4,0.00
2014-8-21,74.3,67.0,61.8,68.3,63.7,60.6,99,90,79,30.05,30.01,2,0,6,0.16
2014-8-22,68.1,63.5,59.5,63.4,61.6,58.9,99,94,82,30.08,30.02,3,1,6,0.01
2014-8-23,69.5,63.1,58.7,62.2,59.7,57.5,98,89,74,30.13,30.07,4,2,8,0.00
2014-8-24,77.3,66.2,56.4,64.1,59.3,55.2,97,80,53,30.16,30.11,5,2,10,0.00
2014-8-25,84.4,71.4,59.5,70.3,63.3,58.1,97,77,54,30.18,30.11,5,2,7,0.00
2014-8-26,84.8,72.7,64.1,70.9,64.8,60.1,96,78,53,30.16,30.04,2,0,4,0.00
2014-8-27,85.7,72.5,60.6,74.7,67.2,60.1,100,85,64,30.05,29.85,6,0,8,0.03
2014-8-28,74.5,66.5,57.1,62.9,56.4,52.7,86,70,59,30.04,29.84,8,4,12,0.01
2014-8-29,74.3,62.5,52.9,60.9,55.0,49.9,94,78,55,30.25,30.04,7,2,8,0.00
2014-8-30,74.0,63.6,53.2,65.1,60.0,52.4,100,89,66,30.27,30.13,4,1,9,0.01
2014-8-31,78.5,70.1,65.3,74.3,68.3,64.0,99,94,84,30.14,29.95,3,1,7,0.42
2014-9-1,83.8,73.1,65.8,75.6,70.2,65.5,100,91,72,29.99,29.90,3,0,6,0.01
2014-9-2,86.1,75.8,67.7,79.0,72.2,67.4,100,89,70,29.93,29.73,3,0,5,0.01
2014-9-3,79.1,69.3,62.9,70.1,62.0,56.6,93,78,56,30.10,29.73,8,3,12,0.00
2014-9-4,82.6,69.8,60.4,69.1,61.6,55.7,94,76,51,30.19,30.10,2,0,7,0.00
2014-9-5,83.0,71.8,61.6,75.4,68.5,60.9,100,90,73,30.16,29.99,3,1,7,0.00
2014-9-6,84.9,73.0,60.8,77.7,70.0,57.9,100,91,73,29.99,29.78,9,2,14,0.08
2014-9-7,74.8,64.7,58.9,62.7,56.9,51.4,99,78,50,30.20,29.91,6,4,14,0.05
2014-9-8,72.9,62.9,55.3,61.3,55.8,51.2,94,78,58,30.35,30.20,5,2,11,0.00
2014-9-9,67.4,58.9,51.0,60.7,55.0,49.4,96,87,77,30.32,30.18,4,2,8,0.00
2014-9-10,72.7,60.5,52.6,61.0,55.8,50.3,99,86,60,30.18,30.02,5,2,8,0.00
2014-9-11,71.3,64.4,56.4,69.4,63.0,53.3,99,96,87,30.02,29.81,9,2,16,0.01
2014-9-12,67.5,57.5,50.2,56.4,51.5,46.9,90,81,64,30.22,29.95,11,6,17,0.00
2014-9-13,59.3,52.7,46.0,56.1,50.6,43.8,99,93,82,30.25,30.12,6,2,10,0.25
2014-9-14,64.5,52.7,44.9,52.4,46.4,39.4,97,80,58,30.27,30.16,10,5,16,0.00
2014-9-15,64.3,54.3,45.7,50.6,45.1,42.3,90,72,50,30.25,30.10,6,2,10,0.00
2014-9-16,64.0,55.8,51.1,59.7,52.3,44.7,99,88,74,30.09,29.97,4,1,7,0.11
2014-9-17,68.1,55.9,46.4,52.5,48.2,44.6,94,77,50,30.06,29.97,5,2,10,0.00
2014-9-18,70.6,58.5,49.6,54.4,49.9,45.9,91,74,48,30.13,29.95,7,2,10,0.00
2014-9-19,60.0,49.6,41.1,50.4,41.3,37.3,94,75,46,30.40,30.13,7,2,12,0.00
2014-9-20,70.7,55.7,42.1,62.3,53.0,40.8,99,91,71,30.38,30.10,4,1,9,0.00
2014-9-21,73.4,65.4,59.3,71.3,64.9,59.0,100,98,91,30.10,29.59,2,0,5,0.08
2014-9-22,66.0,57.3,46.7,63.9,51.1,39.9,100,81,59,30.10,29.58,8,3,18,0.01
2014-9-23,66.3,54.3,43.8,51.4,46.9,40.7,92,77,53,30.45,30.10,5,2,10,0.00
2014-9-24,66.9,58.7,53.0,55.1,51.8,49.5,95,79,59,30.60,30.44,4,2,8,0.00
2014-9-25,59.2,55.0,51.7,54.0,51.6,47.7,98,89,70,30.51,30.24,5,2,10,0.00
2014-9-26,74.0,62.0,52.4,58.7,54.2,48.6,92,77,52,30.24,30.17,7,4,14,0.00
2014-9-27,81.0,67.9,57.9,64.8,59.2,53.3,89,75,54,30.22,30.15,6,3,10,0.00
2014-9-28,81.2,70.2,61.3,67.5,62.2,58.9,94,77,55,30.16,29.99,4,1,8,0.00
2014-9-29,78.7,67.4,60.3,62.6,57.3,46.4,96,72,42,29.99,29.90,4,1,7,0.00
2014-9-30,62.7,56.8,54.6,61.2,56.2,54.3,100,98,94,30.01,29.93,5,2,10,0.01
2014-10-1,57.2,55.6,54.1,56.9,55.3,53.8,100,99,98,30.10,30.00,6,3,10,0.21
2014-10-2,63.3,55.9,53.1,58.4,54.5,52.8,100,95,80,30.18,30.09,6,3,11,0.06
2014-10-3,67.3,55.7,48.2,53.7,49.8,45.2,99,82,52,30.16,29.87,4,2,7,0.00
2014-10-4,58.4,54.1,51.1,58.4,53.9,51.1,100,100,99,29.87,29.51,5,2,10,1.10
2014-10-5,55.9,45.9,38.0,50.2,39.5,35.1,99,80,50,29.99,29.63,5,1,11,0.01
2014-10-6,62.8,50.0,37.1,52.0,44.8,36.1,97,83,62,30.12,30.00,5,1,13,0.00
2014-10-7,69.3,59.2,50.2,61.4,56.5,49.5,100,91,67,30.11,29.92,5,2,11,0.08
2014-10-8,64.9,58.3,48.4,58.7,53.0,44.1,99,84,58,29.92,29.71,6,2,11,0.60
2014-10-9,62.7,51.0,40.3,46.1,42.1,38.7,97,73,48,30.04,29.90,5,1,10,0.00
2014-10-10,58.5,49.7,40.2,44.2,41.0,37.9,93,73,52,30.14,30.04,5,1,9,0.00
2014-10-11,49.6,45.7,41.9,46.3,42.6,39.9,98,89,76,30.19,30.08,4,1,6,0.16
2014-10-12,60.9,47.6,39.1,46.4,41.0,37.0,98,80,50,30.33,30.18,5,2,9,0.00
2014-10-13,58.6,50.3,40.5,54.9,47.6,38.8,98,91,75,30.36,30.27,3,1,8,0.00
2014-10-14,70.5,62.5,55.7,65.8,60.8,55.1,100,94,77,30.27,30.12,4,1,11,0.02
2014-10-15,72.1,67.2,62.1,68.6,65.7,61.2,100,95,85,30.12,29.87,5,3,13,0.08
2014-10-16,67.6,63.5,57.2,67.6,63.2,56.9,100,99,95,29.87,29.65,6,2,13,1.04
2014-10-17,66.8,58.1,51.7,57.2,54.3,51.3,100,88,64,29.69,29.61,4,1,8,0.00
2014-10-18,62.2,53.8,48.2,56.9,52.1,46.1,100,94,77,29.67,29.53,7,1,12,0.02
2014-10-19,48.7,42.8,35.2,46.1,34.6,26.6,91,73,56,30.01,29.65,11,6,23,0.00
2014-10-20,51.3,41.8,30.2,41.8,35.4,27.8,93,79,60,30.12,30.00,7,1,13,0.00
2014-10-21,61.0,51.5,44.9,51.8,47.2,41.6,97,86,65,30.00,29.89,4,1,8,0.08
2014-10-22,51.2,48.0,45.4,50.7,47.4,44.6,99,98,94,30.01,29.78,13,7,22,0.46
2014-10-23,48.1,46.0,43.3,47.2,45.2,42.8,98,97,94,29.82,29.69,12,8,24,0.25
2014-10-24,49.6,40.4,43.5,45.6,38.4,42.9,98,80,85,29.83,29.75,13,7,20,0.01
2014-10-25,62.1,49.9,40.0,48.6,43.3,38.9,97,79,54,29.85,29.56,9,2,12,0.00
2014-10-26,52.4,45.6,39.6,47.3,41.8,38.6,99,86,71,29.79,29.50,10,2,21,0.09
2014-10-27,56.7,47.0,43.4,43.2,39.6,38.3,91,73,58,30.06,29.79,10,2,16,0.00
2014-10-28,69.0,55.1,44.4,53.8,46.5,37.6,91,74,53,30.07,29.91,4,1,7,0.00
2014-10-29,66.1,54.4,40.8,58.9,51.4,38.9,100,90,66,29.92,29.81,6,1,11,0.13
2014-10-30,51.2,42.8,38.0,43.1,38.0,33.6,98,81,64,30.04,29.91,8,2,12,0.00
2014-10-31,49.6,42.7,35.7,41.5,37.0,30.8,96,81,62,30.05,29.95,7,3,15,0.07
2014-11-1,43.5,38.4,37.5,40.1,35.3,33.4,96,84,77,29.95,29.82,15,6,18,0.08
2014-11-2,41.6,36.5,33.2,35.5,26.0,17.4,92,67,46,29.98,29.75,21,12,31,0.00
2014-11-3,52.4,41.7,29.9,32.2,27.5,17.8,78,58,41,30.12,29.97,10,4,18,0.00
2014-11-4,63.9,51.8,41.6,37.4,31.1,21.3,64,46,31,30.16,30.01,4,1,10,0.00
2014-11-5,60.2,51.5,45.5,45.9,36.9,29.3,74,58,44,30.14,29.98,4,1,14,0.00
2014-11-6,45.7,43.3,42.3,43.0,38.4,30.7,99,83,56,30.12,29.55,5,1,8,0.25
2014-11-7,42.9,38.0,31.6,42.6,34.1,25.5,99,84,71,29.88,29.54,14,6,22,0.00
2014-11-8,44.8,35.4,29.4,31.8,26.1,23.1,78,66,51,30.03,29.88,11,2,14,0.00
2014-11-9,52.1,41.7,37.9,37.0,32.2,30.5,82,67,49,30.03,29.90,4,1,9,0.00
2014-11-10,55.9,45.1,36.6,38.1,34.3,30.3,92,67,44,30.20,30.02,4,1,7,0.00
2014-11-11,59.6,46.5,39.8,53.9,44.8,37.8,100,87,78,30.18,29.95,4,1,6,0.00
2014-11-12,60.9,47.7,35.1,56.1,44.8,28.9,100,88,74,30.06,29.86,14,4,21,0.01
2014-11-13,43.8,29.7,32.1,31.5,22.0,25.3,95,54,53,30.10,29.97,11,3,17,0.00
2014-11-14,34.7,30.6,25.0,30.9,25.7,19.9,96,82,66,30.17,29.94,11,4,17,0.10
2014-11-15,34.3,27.2,21.2,21.1,18.9,17.1,88,72,52,30.39,30.16,10,2,16,0.00
2014-11-16,38.3,30.9,23.4,28.8,23.5,17.3,84,74,57,30.41,30.14,4,1,9,0.00
2014-11-17,44.6,35.8,32.2,44.6,35.0,28.5,100,97,83,30.15,29.48,5,1,9,1.13
2014-11-18,39.5,27.4,16.8,38.8,16.9,5.9,98,66,46,30.01,29.54,5,3,15,0.00
2014-11-19,29.2,21.3,14.4,14.9,9.3,5.5,72,60,40,30.23,30.01,5,2,9,0.00
2014-11-20,39.9,29.9,21.2,24.8,18.7,13.8,87,64,46,30.08,29.82,6,2,16,0.00
2014-11-21,29.2,22.1,15.8,16.8,11.4,9.6,83,64,50,30.49,29.97,11,3,19,0.00
2014-11-22,37.4,27.9,15.3,25.0,15.4,10.3,82,61,41,30.49,30.17,5,2,12,0.00
2014-11-23,56.3,43.8,35.6,36.4,30.4,22.1,84,60,41,30.20,30.05,5,1,9,0.01
2014-11-24,60.6,54.2,40.7,59.9,53.3,35.1,100,97,80,30.05,29.56,9,4,19,0.81
2014-11-25,58.3,48.5,38.4,56.5,37.5,29.2,94,67,46,30.14,29.71,5,2,10,0.00
2014-11-26,39.1,33.5,28.9,31.6,30.6,28.2,98,90,70,30.22,29.76,11,5,21,0.00
2014-11-27,32.2,28.2,25.2,29.6,26.6,24.2,98,94,89,30.05,29.79,9,5,15,0.03
2014-11-28,30.9,24.4,16.5,24.3,20.0,11.9,95,83,70,30.27,30.03,9,4,21,0.08
2014-11-29,31.9,22.8,13.1,26.3,17.2,10.0,89,79,57,30.38,30.26,4,1,6,0.02
2014-11-30,47.8,38.2,29.2,38.1,33.8,26.4,96,85,68,30.26,30.08,4,1,9,0.34
2014-12-1,58.4,42.3,31.3,48.7,36.9,24.0,93,81,68,30.47,30.07,13,4,22,0.01
2014-12-2,32.0,29.4,26.1,30.2,23.7,19.0,98,80,69,30.67,30.39,11,4,17,0.00
2014-12-3,39.9,35.0,30.4,39.9,34.4,27.4,100,98,88,30.39,29.96,5,1,12,0.29
2014-12-4,37.8,30.3,25.7,27.4,23.0,20.4,89,75,53,30.56,30.18,7,2,13,0.00
2014-12-5,32.4,28.5,22.0,31.9,23.5,18.5,98,82,65,30.66,30.40,5,2,8,0.29
2014-12-6,37.7,34.2,32.4,37.4,33.9,31.9,99,99,97,30.40,30.16,11,3,17,0.81
2014-12-7,35.8,29.1,18.6,32.6,17.0,0.0,96,62,37,30.65,30.25,12,9,20,0.00
2014-12-8,25.7,19.4,12.8,24.7,13.3,1.8,96,78,48,30.75,30.47,7,4,14,0.00
2014-12-9,38.3,33.4,25.7,38.0,32.9,24.7,99,98,96,30.47,29.64,17,8,24,1.34
2014-12-10,33.7,31.3,26.7,33.2,30.5,25.6,98,97,95,29.65,29.51,11,6,18,0.02
2014-12-11,30.8,26.9,23.5,28.2,25.2,22.0,96,93,87,29.86,29.53,6,1,10,0.03
2014-12-12,29.2,26.2,20.9,25.6,23.7,19.6,96,90,85,29.98,29.86,10,5,16,0.00
2014-12-13,32.9,29.6,26.5,29.9,26.4,24.2,91,88,80,29.98,29.87,14,8,26,0.01
2014-12-14,37.1,34.0,32.2,33.0,31.2,29.0,94,89,83,29.97,29.87,13,8,28,0.01
2014-12-15,37.4,32.0,29.2,31.9,29.1,27.7,95,89,79,30.16,29.95,11,5,21,0.00
2014-12-16,35.7,32.1,27.4,35.1,31.3,26.4,98,97,93,30.16,29.92,3,0,5,0.15
2014-12-17,45.2,38.7,32.5,43.7,37.6,31.0,100,96,89,29.92,29.79,7,2,11,0.06
2014-12-18,34.3,32.0,29.8,31.6,28.9,26.9,96,88,81,29.95,29.80,13,4,26,0.01
2014-12-19,30.5,27.6,24.1,27.2,23.3,20.5,88,83,79,30.19,29.95,9,6,19,0.00
2014-12-20,28.6,25.6,20.4,25.6,21.8,18.1,91,85,80,30.32,30.19,7,3,9,0.00
2014-12-21,31.7,29.3,27.4,30.4,28.3,25.5,98,96,89,30.37,30.30,5,2,8,0.03
2014-12-22,35.3,32.8,30.1,34.9,32.3,29.5,99,98,96,30.39,30.25,4,2,8,0.04
2014-12-23,39.6,37.8,35.3,39.6,37.7,35.0,100,100,99,30.27,30.13,6,4,13,0.17
2014-12-24,50.5,40.9,38.2,50.5,40.9,38.2,100,100,100,30.13,29.58,5,2,9,0.34
2014-12-25,56.7,45.3,35.4,56.7,40.4,30.0,100,84,60,30.05,29.48,5,2,14,0.08
2014-12-26,43.6,36.5,31.7,33.2,30.7,28.3,92,80,64,30.25,30.04,8,1,13,0.00
2014-12-27,49.6,38.5,30.2,37.2,32.9,27.5,91,81,61,30.28,30.06,4,0,7,0.00
2014-12-28,46.4,39.9,31.9,43.6,35.7,25.5,97,85,71,30.06,29.85,7,2,12,0.08
2014-12-29,35.5,29.7,22.7,26.0,22.6,12.4,86,75,63,30.28,30.05,8,3,14,0.00
2014-12-30,25.5,19.6,13.3,13.6,10.4,6.9,77,68,53,30.41,30.26,8,3,19,0.00
2014-12-31,26.8,17.8,12.1,12.9,7.6,4.3,87,66,41,30.36,30.16,7,1,11,0.00
2015-1-1,28.3,22.4,12.2,17.2,10.5,6.3,79,60,46,30.15,29.97,5,2,11,0.00
2015-1-2,35.8,27.8,22.3,25.4,19.6,15.9,82,71,56,30.48,29.99,5,1,11,0.00